YAOGAN 21

Last updated on Wed Apr 24 2024 00:02:24 GMT+0000 (Coordinated Universal Time)

1 40143U 14053A 24114.59491290 .00018768 00000+0 77441-3 0 9991 2 40143 97.2573 174.4349 0006225 355.6249 4.4933 15.24072622535465
UTC large
Height (km)
Speed (km/s)
/
Latitude / Longitude
Inclination (degrees)
Orbital Period (minutes)
Azimuth
Elevation
Range (km)
Doppler Factor

Next 0 passes for location: London (51.5072 / 0.1276)

Sorry there are no passes over London.
YAOGAN 21